Wind_Speed
5 3 10 10 6 6 1 3 3 1 2 4 9 12 15 14 19 21 23 23 26 25 23 20 19 21 23 22 19 15 12 12 12 14 16 18 20 21 22 24 26 26 26 26
3 10 7 8 9 10 11 4 5 0 2 2 2 13 13 9 13 26 30 28 31 28 28 26 22 23 23 21 18 14 12 12 13 15 17 19 21 22 24 25 26 27 27 26
6 4 2 10 5 7 7 6 4 5 3 4 3 9 6 6 17 17 29 36 32 37 36 31 25 24 21 19 17 13 12 12 13 14 16 18 20 22 24 26 27 27 28 28
7 5 5 3 5 6 5 3 5 4 3 4 3 5 6 4 6 6 15 30 34 31 38 34 27 25 23 20 17 13 11 13 12 14 17 19 22 24 26 29 29 29 28 29
5 5 4 4 4 5 5 2 4 2 2 3 2 2 8 3 7 9 10 20 25 31 38 35 28 24 23 21 17 13 12 12 13 15 17 19 21 24 26 27 28 28 28 28
0 1 2 3 3 2 6 5 5 4 3 1 8 7 5 5 6 3 6 18 20 26 36 31 24 23 24 22 18 14 12 11 12 14 16 18 21 23 24 25 27 29 30 29
1 3 2 3 4 6 1 5 2 3 2 6 4 4 9 6 6 7 11 19 21 30 33 29 28 29 27 23 18 14 12 11 12 13 16 18 19 20 21 24 27 30 31 31
7 5 9 6 5 7 6 4 5 7 4 4 4 6 6 5 4 9 24 26 27 30 30 29 31 29 25 23 19 15 12 11 12 12 14 16 17 18 20 23 26 29 31 31
5 4 2 3 2 2 6 4 3 5 1 3 4 7 8 3 3 6 16 26 28 29 30 30 29 27 25 22 18 15 13 12 11 11 13 14 15 17 19 22 25 28 29 29
5 1 1 2 0 1 2 1 2 2 2 4 4 5 6 7 9 8 9 17 29 30 29 26 26 25 22 20 19 17 14 12 10 11 12 12 14 16 19 22 24 27 27 26
5 4 1 2 7 8 2 2 1 2 4 5 2 6 6 7 13 14 11 24 29 30 30 28 26 23 21 20 19 17 14 11 10 10 10 10 12 15 17 20 23 26 27 26
5 5 5 8 1 2 4 6 6 4 6 4 3 7 2 5 10 12 16 27 27 26 26 25 24 21 20 18 18 16 13 11 10 10 9 9 11 13 15 19 22 25 26 24
7 2 2 5 3 1 6 6 4 3 3 8 4 6 3 5 5 11 18 22 22 22 22 22 23 21 18 18 18 16 14 11 10 9 8 7 9 10 14 17 20 24 25 23
2 4 7 8 4 5 5 7 13 8 6 6 14 6 5 4 3 5 17 22 23 23 22 21 20 18 18 19 18 17 15 12 11 9 7 6 8 9 13 16 19 22 24 23
3 5 5 7 5 4 5 5 11 18 16 12 8 17 15 6 8 11 20 21 20 20 21 25 23 21 20 21 20 19 17 13 11 10 7 6 7 8 11 14 17 20 23 22
2 3 3 3 5 6 11 14 10 17 17 17 12 11 9 8 11 11 18 22 21 19 22 22 21 20 21 21 21 19 17 14 12 12 7 7 7 7 11 13 15 18 20 23
6 7 4 5 3 5 7 21 22 18 7 12 17 18 8 8 10 17 24 21 30 26 20 19 20 19 18 19 20 19 16 15 13 13 8 9 8 6 9 12 13 15 18 20
6 6 5 4 4 3 7 3 14 21 18 19 6 9 15 20 34 24 19 20 22 23 17 16 17 17 17 18 20 20 19 16 15 15 10 11 9 6 7 10 11 13 16 19
6 5 4 5 4 6 7 5 7 9 11 22 21 22 12 15 6 12 26 28 27 21 20 18 16 15 16 18 20 20 19 17 17 16 11 13 11 8 5 9 9 10 12 15
11 9 3 3 4 7 5 0 2 4 5 5 18 21 17 9 7 13 20 26 35 31 19 14 13 13 15 17 19 20 19 19 18 16 12 14 13 11 6 8 9 9 11 13
6 3 10 3 2 7 7 4 3 5 4 1 6 16 15 9 11 3 8 11 15 15 13 11 10 9 10 15 18 19 20 21 14 16 16 15 16 13 9 8 7 7 8 10
8 7 4 2 2 8 8 4 6 3 1 2 3 5 16 11 12 13 10 7 7 8 8 8 8 9 12 17 20 20 22 15 17 19 17 17 17 15 13 10 9 7 6 8
4 2 3 8 7 1 13 2 11 1 2 1 4 10 15 17 10 4 1 2 3 5 7 8 9 11 13 17 20 23 20 19 20 22 20 19 19 18 17 14 11 10 7 7
10 10 4 3 4 5 10 16 17 8 3 6 9 10 6 3 2 2 3 5 5 6 7 8 7 7 10 15 19 20 21 22 24 25 25 23 22 20 20 18 15 13 11 10
6 5 7 9 13 12 14 13 18 20 16 13 9 3 6 5 6 9 10 11 10 10 9 11 11 11 11 14 18 19 21 24 29 30 29 28 26 24 23 21 19 16 14 12
5 9 6 4 7 5 10 35 38 29 28 27 18 7 7 6 7 8 10 10 10 10 11 13 15 18 18 20 22 22 22 23 28 33 34 33 31 28 26 24 22 20 17 14
Wind_Direction
186 157 210 196 203 249 57 208 308 149 321 151 228 261 260 256 247 232 226 214 202 200 203 209 206 200 203 210 216 220 228 247 265 278 294 303 309 313 316 319 319 317 312 308
108 238 220 209 210 227 260 269 262 202 195 188 253 268 265 244 241 226 216 214 204 198 192 196 201 201 203 207 210 218 236 254 271 291 307 314 318 321 323 322 321 318 315 312
166 212 186 198 208 196 226 205 216 237 187 251 14 289 271 269 236 233 223 217 208 203 187 188 196 202 203 205 211 223 240 263 281 302 313 316 318 320 320 321 321 320 317 313
228 224 156 187 219 156 223 237 173 166 104 228 136 272 297 249 244 211 189 212 213 203 193 192 198 200 201 208 218 227 250 269 289 308 316 319 323 326 327 325 323 323 321 318
234 157 158 169 202 181 219 127 136 128 153 53 237 77 266 253 249 228 213 200 199 202 194 192 198 204 202 212 219 231 252 273 294 309 315 319 324 326 326 326 326 325 324 321
144 245 160 160 58 337 143 72 44 45 74 344 226 170 272 211 221 233 188 205 198 194 194 194 198 201 205 215 221 233 252 277 296 306 314 321 327 329 330 331 331 332 330 327
299 216 143 138 86 3 63 106 17 352 359 219 325 158 247 250 236 209 179 182 180 179 180 185 192 199 209 216 226 234 253 279 296 305 316 324 329 332 335 336 336 334 331 330
180 275 169 181 202 181 188 180 167 200 204 248 359 229 246 228 223 199 172 169 167 172 183 192 197 202 215 226 230 235 255 279 290 306 317 325 331 334 338 338 338 336 333 328
188 249 15 43 70 134 187 205 190 100 48 64 219 275 290 192 111 109 155 170 178 183 190 197 205 216 223 230 233 239 256 275 289 307 317 325 329 335 338 342 341 340 336 328
182 45 320 279 61 63 184 203 101 3 180 253 274 271 239 210 201 181 164 182 186 191 196 204 212 218 226 230 238 238 254 268 283 301 313 321 333 336 343 345 344 343 338 332
156 125 196 122 203 184 138 215 221 153 169 183 188 254 225 223 194 190 197 188 189 193 199 203 211 218 226 235 234 236 250 260 278 296 308 324 331 340 345 347 348 345 344 339
193 154 204 205 197 210 201 207 185 160 236 219 176 261 340 305 202 180 190 199 197 194 196 201 209 217 226 235 234 236 246 252 270 285 303 318 334 339 346 351 353 351 351 348
183 224 79 328 351 293 215 196 186 118 98 221 185 259 330 346 76 169 173 190 192 193 194 201 210 220 232 234 234 236 236 244 262 276 290 317 324 337 348 356 357 359 358 359
206 160 171 194 166 133 199 208 198 181 200 203 229 284 278 237 163 139 171 177 179 189 197 208 216 233 236 236 235 236 231 240 254 266 278 303 311 339 351 357 0 3 3 4
185 213 188 241 198 172 202 208 205 213 217 205 218 218 247 212 208 205 189 188 194 207 215 224 232 241 233 232 231 228 229 237 248 254 259 281 295 338 346 355 2 5 8 6
169 217 195 287 211 204 248 242 225 224 232 245 265 270 237 251 233 214 212 197 211 231 234 234 232 228 230 231 228 222 225 235 242 246 247 261 281 326 341 350 3 7 9 11
188 158 142 254 237 123 277 236 220 225 200 203 226 237 244 262 208 219 222 222 239 245 234 228 226 233 236 231 222 220 223 232 238 242 238 254 269 306 335 341 359 6 7 9
205 167 166 183 139 198 241 198 213 213 228 217 243 214 217 230 246 259 257 241 234 228 244 235 228 232 229 219 216 214 220 229 236 237 233 251 260 276 322 328 353 6 3 3
198 190 174 160 201 300 283 197 162 165 257 223 224 235 220 223 244 256 251 247 247 247 262 241 230 222 218 216 214 217 221 227 237 236 230 246 251 259 293 314 335 359 7 0
196 228 183 148 164 208 241 53 14 131 287 236 208 228 228 161 239 256 256 261 245 245 235 200 198 209 211 212 213 220 224 229 236 235 231 242 247 248 260 292 317 346 359 4
177 182 222 192 217 281 250 177 148 93 250 281 230 234 192 187 204 250 141 125 143 162 177 191 206 223 226 222 222 227 229 233 233 231 232 238 246 246 250 271 297 325 347 354
194 160 188 145 138 265 162 102 179 216 354 321 305 234 152 155 151 136 126 133 161 182 198 210 219 226 228 230 230 233 237 238 228 236 238 237 245 246 247 255 275 293 322 328
238 261 202 184 211 242 196 258 223 322 296 277 120 149 142 134 136 136 152 186 226 239 244 249 248 238 236 238 239 241 247 238 233 239 242 242 244 246 245 249 258 269 274 289
346 16 317 350 273 257 256 241 254 242 247 159 138 144 176 148 177 294 285 298 298 276 253 244 252 256 256 256 256 259 253 245 241 242 243 242 243 245 247 247 246 254 262 268
274 331 321 293 290 286 268 256 313 270 234 200 191 187 194 239 263 254 249 275 287 278 266 263 268 273 272 271 269 267 260 251 246 245 242 243 242 242 243 247 248 249 254 262
219 252 253 282 343 341 301 321 323 313 243 223 226 249 207 209 239 256 264 275 280 276 276 278 279 278 280 275 272 266 261 256 250 247 244 241 242 240 240 243 246 248 251 255
Height
1467 1473 1471 1468 1470 1467 1466 1468 1470 1468 1464 1467 1468 1461 1453 1452 1453 1452 1452 1454 1457 1459 1463 1465 1468 1471 1474 1476 1478 1480 1482 1484 1485 1485 1484 1483 1481 1478 1475 1472 1468 1465 1462 1459
1469 1468 1464 1464 1466 1469 1470 1468 1469 1466 1467 1469 1464 1458 1448 1445 1441 1439 1443 1447 1450 1455 1457 1460 1463 1467 1470 1472 1474 1477 1479 1481 1482 1481 1479 1476 1473 1471 1468 1465 1463 1460 1456 1453
1466 1458 1455 1460 1462 1465 1467 1469 1466 1466 1468 1467 1467 1460 1444 1431 1430 1431 1433 1438 1443 1446 1450 1455 1458 1462 1466 1468 1471 1474 1476 1478 1478 1476 1473 1471 1469 1467 1464 1460 1457 1454 1450 1447
1459 1453 1455 1458 1460 1461 1465 1460 1460 1464 1468 1480 1466 1479 1445 1428 1428 1426 1427 1430 1436 1441 1446 1449 1453 1457 1461 1465 1468 1470 1472 1473 1472 1471 1469 1466 1463 1460 1456 1453 1450 1447 1444 1440
1454 1453 1456 1458 1457 1458 1461 1460 1461 1463 1467 1474 1467 1488 1444 1430 1428 1424 1424 1426 1430 1435 1439 1445 1450 1454 1457 1461 1464 1466 1468 1469 1467 1466 1464 1462 1459 1455 1452 1449 1445 1442 1437 1434
1455 1455 1454 1454 1459 1458 1460 1462 1466 1470 1475 1506 1466 1466 1449 1429 1418 1415 1420 1422 1425 1430 1436 1443 1448 1452 1454 1458 1460 1462 1464 1464 1463 1462 1460 1457 1454 1451 1448 1444 1439 1435 1431 1427
1455 1455 1455 1455 1460 1461 1460 1467 1493 1499 1517 1494 1459 1464 1439 1415 1411 1410 1413 1418 1422 1427 1433 1439 1444 1447 1451 1454 1457 1458 1460 1459 1458 1457 1456 1453 1450 1447 1444 1439 1434 1429 1424 1420
1458 1463 1454 1452 1452 1455 1463 1463 1473 1483 1485 1468 1461 1457 1422 1409 1407 1406 1409 1416 1422 1427 1432 1436 1440 1444 1447 1450 1453 1455 1455 1455 1455 1454 1452 1449 1446 1444 1440 1436 1431 1425 1419 1415
1457 1448 1452 1451 1450 1450 1459 1466 1456 1475 1499 1486 1455 1435 1414 1409 1410 1409 1411 1416 1420 1424 1429 1434 1438 1441 1443 1446 1448 1450 1450 1451 1450 1449 1448 1446 1443 1440 1436 1432 1427 1421 1416 1410
1440 1451 1454 1454 1452 1453 1452 1454 1461 1476 1475 1480 1452 1436 1417 1413 1411 1411 1411 1414 1417 1421 1426 1431 1434 1436 1439 1442 1444 1445 1446 1446 1446 1446 1444 1442 1439 1436 1433 1429 1424 1418 1413 1407
1434 1437 1457 1453 1452 1449 1457 1455 1456 1455 1456 1465 1463 1429 1403 1398 1400 1405 1406 1409 1413 1415 1420 1425 1429 1432 1435 1438 1439 1440 1441 1441 1442 1441 1440 1438 1436 1433 1430 1425 1420 1415 1409 1403
1431 1437 1445 1448 1440 1441 1442 1442 1442 1446 1445 1457 1459 1427 1396 1397 1391 1395 1400 1406 1410 1413 1418 1422 1426 1428 1430 1432 1434 1435 1436 1437 1437 1437 1436 1435 1433 1430 1426 1422 1418 1413 1406 1400
1428 1445 1455 1447 1446 1443 1442 1438 1437 1441 1448 1443 1453 1421 1398 1396 1393 1394 1398 1405 1408 1412 1415 1419 1422 1422 1424 1427 1428 1430 1431 1432 1433 1433 1433 1431 1430 1427 1423 1420 1416 1410 1405 1399
1422 1432 1433 1428 1420 1432 1438 1432 1429 1432 1453 1438 1415 1424 1400 1399 1398 1396 1399 1402 1405 1408 1411 1414 1416 1417 1418 1421 1423 1425 1426 1428 1429 1430 1429 1428 1427 1424 1421 1417 1414 1409 1404 1398
1424 1427 1429 1427 1423 1422 1423 1426 1427 1425 1422 1422 1413 1410 1400 1399 1397 1395 1396 1400 1402 1404 1405 1407 1408 1411 1412 1415 1417 1420 1422 1423 1425 1426 1425 1425 1423 1420 1418 1416 1412 1408 1403 1398
1423 1422 1426 1432 1421 1423 1420 1419 1422 1418 1418 1414 1416 1410 1395 1390 1392 1393 1392 1395 1395 1397 1399 1400 1402 1404 1406 1408 1411 1415 1417 1419 1421 1421 1421 1421 1420 1417 1416 1414 1410 1407 1403 1398
1422 1422 1428 1431 1419 1424 1422 1398 1402 1400 1409 1405 1409 1387 1390 1387 1386 1384 1386 1390 1389 1390 1392 1393 1395 1398 1400 1403 1406 1409 1412 1414 1416 1417 1417 1417 1416 1414 1413 1411 1408 1406 1401 1398
1415 1413 1414 1421 1424 1426 1379 1375 1377 1383 1381 1387 1387 1383 1377 1377 1374 1376 1380 1381 1381 1384 1386 1387 1389 1392 1394 1397 1400 1404 1406 1409 1411 1412 1413 1413 1413 1411 1410 1409 1406 1403 1400 1396
1405 1400 1402 1407 1416 1390 1372 1371 1377 1382 1373 1367 1371 1369 1369 1372 1374 1371 1372 1373 1375 1378 1380 1383 1384 1387 1390 1392 1396 1399 1401 1404 1405 1407 1408 1409 1409 1408 1407 1407 1404 1402 1398 1395
1397 1398 1395 1400 1398 1407 1372 1368 1368 1369 1379 1354 1356 1356 1362 1371 1375 1366 1364 1363 1364 1371 1376 1378 1380 1383 1385 1388 1390 1393 1396 1398 1400 1402 1403 1405 1405 1405 1404 1403 1402 1399 1397 1394
1386 1390 1386 1399 1402 1391 1368 1367 1367 1381 1367 1355 1354 1352 1357 1363 1360 1361 1361 1361 1363 1369 1374 1375 1377 1380 1381 1383 1386 1388 1391 1392 1396 1397 1398 1400 1401 1401 1401 1400 1398 1397 1395 1393
1384 1387 1394 1394 1397 1391 1362 1368 1369 1360 1357 1356 1354 1353 1353 1354 1358 1361 1364 1365 1368 1371 1372 1373 1374 1376 1378 1379 1381 1383 1384 1388 1390 1391 1392 1393 1395 1397 1397 1396 1396 1394 1393 1392
1383 1381 1382 1372 1366 1358 1359 1357 1357 1356 1357 1357 1356 1357 1357 1356 1359 1363 1365 1367 1369 1369 1369 1369 1370 1372 1373 1374 1375 1376 1378 1382 1384 1385 1386 1387 1389 1391 1391 1392 1391 1391 1390 1388
1387 1384 1380 1368 1357 1358 1356 1357 1356 1356 1357 1357 1356 1357 1359 1359 1360 1362 1365 1367 1367 1366 1367 1367 1366 1367 1367 1369 1369 1370 1374 1376 1377 1378 1380 1381 1382 1384 1385 1387 1387 1387 1386 1386
1396 1392 1388 1381 1364 1356 1353 1355 1359 1357 1356 1355 1356 1356 1358 1360 1362 1364 1365 1366 1365 1364 1363 1364 1363 1363 1365 1365 1364 1365 1367 1368 1369 1370 1372 1373 1375 1377 1378 1380 1381 1382 1382 1382
1389 1386 1384 1374 1367 1368 1358 1355 1356 1352 1349 1349 1353 1354 1356 1359 1360 1362 1362 1362 1363 1362 1360 1358 1358 1358 1358 1357 1357 1358 1359 1360 1360 1361 1363 1365 1367 1369 1371 1373 1374 1376 1377 1377